ONEWEB-0226 (48793 NORAD) Tracking and Keplerian Element Data

This shows tracking and keplerian element data for the satellite.

Feedback or suggestion? Click here.




ElementValue
Catalog48793
NameONEWEB-0226
Epoch Orbit186
Epoch Day170.58334491
Epoch Year2021
RAAN268.8846
Inclination87.4045
Eccentricity0.000901
Argument of Perigee187.1589
Mean Anonmoly139.9007
Mean Motion15.29360957
Decay Rate-0.00918344
L11 48793U 21045AC 21170.58334491 -.00918344 00000-0 -35216-1 0 9990
L22 48793 87.4045 268.8846 0009010 187.1589 139.9007 15.29360957 1863

Live tracking and technical data element details for ONEWEB-0226 (NORAD 48793). ONEWEB-0226 can be tracked NOW for your location showing map with azimuth and elevation plus other details from your city location.

Track the satellite on the map from your city or location and see movement details for azimuth, elevation, latitude, longitude, range, height, and movement on the map or in text.







IsCatalogInMostPopularTable: catalog: 48793, numindb: 5
Update: records affected: 1



GetName: 48793 ONEWEB-0226

Hit Count: updated at: Mon, 21 Jun 2021 04:16:57 GMT